FW4685 Weather Reports


Display with metric or nautical units.
time (UTC)temp
F
wind
direction
speed
MPH
gust
MPH
rain 1hr
in
rain 24hr
in
rain mn
in
humidity
%
barometer
mb
20260905030526 53 180 0.0 0.0 0.00 0.04 0.00 93 1022.3
20260905025703 53 58 0.0 2.0 0.00 0.04 0.00 93 1022.3
20260905024610 53 221 0.0 2.0 0.00 0.04 0.00 93 1022.2
20260905023526 53 173 0.0 2.0 0.00 0.04 0.00 93 1022.1
20260905022555 53 244 0.0 2.0 0.00 0.04 0.00 93 1022.1
20260905021526 53 174 0.0 0.0 0.00 0.04 0.00 92 1021.9
20260905020601 53 158 0.0 0.0 0.00 0.04 0.00 92 1022.0
20260905015612 53 268 0.0 2.0 0.00 0.04 0.00 92 1021.9
20260905014526 53 119 0.0 2.0 0.00 0.04 0.00 92 1021.9
20260905013523 53 201 0.0 2.0 0.00 0.04 0.00 92 1021.9
20260905012531 53 143 0.0 0.0 0.00 0.04 0.00 91 1021.9
20260905011526 53 117 0.0 0.0 0.00 0.04 0.00 91 1021.7
20260905010543 53 133 0.0 2.0 0.00 0.04 0.00 91 1021.5
20260905005531 54 137 0.0 0.0 0.00 0.04 0.00 90 1021.7
20260905004525 54 133 0.0 2.0 0.00 0.04 0.00 89 1021.7
20260905003521 54 254 0.0 2.0 0.00 0.04 0.00 89 1021.8
20260905002521 55 196 0.0 0.0 0.00 0.04 0.00 88 1021.6
20260905001532 55 77 0.0 0.0 0.00 0.04 0.00 88 1021.6
20260905000527 55 68 0.0 0.0 0.00 0.04 0.00 87 1021.4
20260904235522 55 168 0.0 0.0 0.00 0.04 0.00 87 1021.3
20260904234529 55 296 0.0 2.0 0.00 0.04 0.00 86 1021.4
20260904233525 55 320 0.0 2.0 0.00 0.04 0.00 86 1021.3
20260904232521 55 326 0.0 5.0 0.00 0.04 0.00 86 1021.3
20260904231536 55 164 0.0 2.0 0.00 0.04 0.00 86 1021.2
20260904230525 55 112 0.0 2.0 0.00 0.04 0.00 86 1021.1
20260904225521 55 98 0.0 0.0 0.00 0.04 0.04 86 1021.0
20260904224551 55 175 0.0 0.0 0.00 0.04 0.04 86 1021.0
20260904223527 55 91 0.0 0.0 0.00 0.04 0.04 85 1020.9
20260904222521 55 175 0.0 0.0 0.00 0.04 0.04 86 1020.7
20260904221529 56 80 0.0 0.0 0.00 0.04 0.04 85 1020.9
20260904220528 56 165 0.0 0.0 0.00 0.04 0.04 85 1020.8
20260904215521 56 113 0.0 0.0 0.00 0.04 0.04 84 1020.8
20260904214525 57 67 0.0 0.0 0.00 0.04 0.04 83 1020.9
20260904213521 57 103 0.0 0.0 0.00 0.04 0.04 83 1020.8
20260904212529 57 237 0.0 0.0 0.00 0.04 0.04 82 1020.7
20260904211526 58 323 0.0 2.0 0.00 0.04 0.04 82 1020.7
20260904210523 58 80 0.0 0.0 0.00 0.04 0.04 81 1020.5
20260904205530 59 58 0.0 0.0 0.00 0.04 0.04 80 1020.4
20260904204629 59 99 0.0 0.0 0.00 0.04 0.04 79 1020.4
20260904203515 60 247 0.0 2.0 0.00 0.04 0.04 79 1020.5
20260904202520 60 132 0.0 0.0 0.00 0.04 0.04 77 1020.4
20260904201515 61 168 0.0 5.0 0.00 0.04 0.04 77 1020.3
20260904200527 61 15 0.0 2.0 0.00 0.04 0.04 76 1020.3
20260904195518 61 333 0.0 2.0 0.00 0.04 0.04 76 1020.3
20260904194530 62 211 0.0 7.0 0.00 0.04 0.04 75 1020.1
20260904193525 62 287 0.0 5.0 0.00 0.04 0.04 74 1019.9
20260904192519 63 21 0.0 2.0 0.00 0.04 0.04 73 1019.7
20260904191530 64 313 0.0 2.0 0.00 0.04 0.04 71 1019.3
20260904190525 64 319 1.0 10.0 0.00 0.04 0.04 70 1019.3
20260904185538 65 178 0.0 2.0 0.00 0.04 0.04 69 1019.0
20260904184529 65 285 1.0 7.0 0.00 0.04 0.04 67 1018.8
20260904183522 65 183 1.0 7.0 0.00 0.04 0.04 66 1018.6
20260904182517 65 256 1.0 7.0 0.00 0.04 0.04 65 1018.6
20260904181554 65 238 0.0 2.0 0.00 0.04 0.04 63 1018.4
20260904180531 66 321 1.0 5.0 0.00 0.04 0.04 62 1018.4
20260904175519 66 332 1.0 5.0 0.00 0.04 0.04 62 1018.1
20260904174529 66 304 1.0 7.0 0.00 0.04 0.04 61 1018.2
20260904173523 66 290 1.0 7.0 0.00 0.04 0.04 61 1018.0
20260904172537 67 306 0.0 2.0 0.00 0.04 0.04 60 1017.9
20260904171525 67 347 1.0 7.0 0.00 0.04 0.04 60 1017.9
20260904170519 68 45 1.0 5.0 0.00 0.04 0.04 61 1017.9
20260904165529 68 70 1.0 10.0 0.00 0.04 0.04 61 1017.7
20260904164525 68 321 1.0 7.0 0.00 0.04 0.04 60 1017.7
20260904163517 67 59 1.0 10.0 0.00 0.04 0.04 60 1017.6
20260904162530 68 288 1.0 10.0 0.00 0.04 0.04 60 1017.3
20260904161525 68 262 2.0 12.0 0.00 0.04 0.04 59 1017.5
20260904160518 69 277 1.0 7.0 0.00 0.04 0.04 58 1017.2
20260904155529 70 318 1.0 7.0 0.00 0.04 0.04 57 1017.2
20260904154524 70 290 2.0 12.0 0.00 0.04 0.04 56 1017.2
20260904153517 70 292 2.0 10.0 0.00 0.04 0.04 55 1017.1
20260904152530 70 324 1.0 7.0 0.00 0.04 0.04 55 1017.2
20260904151522 70 87 1.0 5.0 0.00 0.04 0.04 56 1017.1
20260904150523 70 313 1.0 10.0 0.00 0.04 0.04 56 1017.2
20260904145517 70 302 2.0 10.0 0.00 0.04 0.04 56 1017.0
20260904144529 69 253 1.0 10.0 0.00 0.04 0.04 56 1016.8
20260904143525 69 349 2.0 10.0 0.00 0.04 0.04 57 1016.9
20260904142525 69 1 1.0 7.0 0.00 0.04 0.04 57 1016.8
20260904141552 69 295 1.0 10.0 0.00 0.04 0.04 57 1016.8
20260904140520 69 61 1.0 10.0 0.00 0.04 0.04 56 1016.8
20260904135530 69 107 1.0 7.0 0.00 0.04 0.04 57 1016.7
20260904134523 70 313 3.0 12.0 0.00 0.04 0.04 57 1016.9
20260904133530 70 314 2.0 12.0 0.00 0.04 0.04 57 1016.7
20260904132537 70 281 3.0 12.0 0.00 0.04 0.04 58 1016.5
20260904131529 70 332 3.0 17.0 0.00 0.04 0.04 60 1016.6
20260904130523 70 283 2.0 12.0 0.00 0.04 0.04 62 1016.7
20260904125519 70 309 2.0 7.0 0.00 0.04 0.04 62 1016.4
20260904124537 70 334 2.0 12.0 0.00 0.04 0.04 62 1016.2
20260904123549 70 312 1.0 7.0 0.00 0.04 0.04 62 1016.0
20260904122541 71 264 2.0 10.0 0.00 0.04 0.04 62 1016.0
20260904121519 71 298 3.0 12.0 0.00 0.04 0.04 62 1016.0
20260904120529 71 299 3.0 12.0 0.00 0.04 0.04 61 1015.7
20260904115517 71 337 1.0 5.0 0.00 0.04 0.04 62 1015.5
20260904114529 71 290 1.0 10.0 0.00 0.04 0.04 64 1015.4
20260904113516 71 268 1.0 10.0 0.00 0.04 0.04 64 1015.5
20260904112517 71 250 1.0 7.0 0.00 0.04 0.04 65 1015.3
20260904111529 71 346 1.0 5.0 0.00 0.04 0.04 66 1015.2
20260904110523 70 315 2.0 10.0 0.00 0.04 0.04 67 1015.1
20260904105540 71 279 1.0 7.0 0.00 0.04 0.04 69 1015.1
20260904104529 71 337 1.0 7.0 0.00 0.04 0.04 73 1015.3
20260904103521 71 288 1.0 7.0 0.00 0.04 0.04 74 1015.0
20260904102530 71 317 1.0 10.0 0.00 0.04 0.04 73 1014.9
20260904101523 71 330 1.0 5.0 0.00 0.04 0.04 74 1014.9
20260904100518 70 299 2.0 15.0 0.00 0.04 0.04 75 1014.7
20260904095528 69 258 0.0 5.0 0.00 0.04 0.04 77 1014.5
20260904094523 68 131 1.0 7.0 0.00 0.04 0.04 78 1014.5
20260904093519 67 226 1.0 12.0 0.00 0.04 0.04 82 1014.2
20260904092531 67 313 1.0 7.0 0.00 0.04 0.04 84 1014.3
20260904091522 67 289 1.0 7.0 0.00 0.04 0.04 86 1014.3
20260904090517 67 337 1.0 7.0 0.00 0.04 0.04 87 1014.1
20260904085529 67 104 0.0 5.0 0.00 0.04 0.04 89 1014.1
20260904084531 66 311 1.0 5.0 0.02 0.04 0.04 89 1014.0
20260904083523 66 359 0.0 5.0 0.04 0.04 0.04 90 1013.9
20260904082518 66 347 1.0 7.0 0.04 0.04 0.04 91 1013.8
20260904081529 66 281 1.0 10.0 0.04 0.04 0.04 90 1013.7
20260904080521 67 275 2.0 10.0 0.04 0.04 0.04 91 1013.5
20260904075517 68 301 3.0 17.0 0.04 0.04 0.04 92 1013.4
20260904074530 68 155 0.0 2.0 0.01 0.01 0.01 91 1012.9
20260904073523 69 124 1.0 5.0 0.00 0.00 0.00 90 1012.7
20260904072517 69 241 1.0 7.0 0.00 0.00 0.00 88 1012.5
20260904071521 69 140 1.0 12.0 0.00 0.00 0.00 86 1012.4
20260904070517 69 215 2.0 12.0 0.00 0.00 0.00 85 1012.2
20260904065551 69 200 1.0 12.0 0.00 0.00 0.00 85 1012.1
20260904064524 69 167 2.0 7.0 0.00 0.00 0.00 84 1012.2
20260904063517 69 203 2.0 7.0 0.00 0.00 0.00 84 1012.1
20260904062549 68 205 2.0 10.0 0.00 0.00 0.00 85 1012.2
20260904061522 68 166 1.0 10.0 0.00 0.00 0.00 86 1012.4
20260904060520 68 195 2.0 10.0 0.00 0.00 0.00 86 1012.5
20260904055548 68 202 1.0 5.0 0.00 0.00 0.00 88 1012.7
20260904054523 67 198 1.0 5.0 0.00 0.00 0.00 89 1012.9
20260904053531 68 165 1.0 5.0 0.00 0.00 0.00 89 1012.7
20260904052521 68 172 1.0 5.0 0.00 0.00 0.00 90 1012.7
20260904051515 68 170 1.0 7.0 0.00 0.00 0.00 90 1012.7
20260904050525 68 185 1.0 7.0 0.00 0.00 0.00 89 1012.5
20260904045539 69 146 1.0 7.0 0.00 0.00 0.00 88 1012.8
20260904044530 69 179 1.0 10.0 0.00 0.00 0.00 87 1013.1
20260904043522 69 137 0.0 7.0 0.00 0.00 0.00 86 1013.2
20260904042529 69 173 1.0 7.0 0.00 0.00 0.00 86 1013.1
20260904041542 69 165 1.0 10.0 0.00 0.00 0.00 85 1013.5
20260904040517 69 154 0.0 5.0 0.00 0.00 0.00 85 1013.4
20260904035528 69 156 2.0 7.0 0.00 0.00 0.00 85 1013.3
20260904034523 69 212 1.0 5.0 0.00 0.00 0.00 85 1013.4
20260904033519 68 195 2.0 12.0 0.00 0.00 0.00 85 1013.6
20260904032517 68 162 1.0 5.0 0.00 0.00 0.00 85 1013.7
20260904031529 68 179 2.0 7.0 0.00 0.00 0.00 85 1013.8